Centerview, MO

7:04 AM CDT on September 25, 2016 (GMT -0500)
Skyhaven

Weather History for KRCM - January, 2014

Change the Weather History Date:

Saturday, January 18, 2014

  Actual Average (KSZL) Record (KSZL)
Temperature  
Mean Temperature - -  
Max Temperature - 37 °F 59 °F (2015)
Min Temperature - 20 °F -2 °F (2016)
Moisture  
Dew Point -    
Average Humidity    
Maximum Humidity    
Minimum Humidity    
Precipitation  
Precipitation 0.00 in - - ()
Sea Level Pressure  
Sea Level Pressure 29.88 in    
Wind  
Wind Speed 12 mph (West)    
Max Wind Speed 24 mph    
Max Gust Speed 38 mph    
Visibility 10 miles    
Events      
Averages and records for this station are not official NWS values.
T = Trace of Precipitation, MM = Missing Value Source: NWS Daily Summary

Daily Weather History Graph

Daily Weather History Graph

Search for Another Location

Airport or City:

Trip Planner

Search our weather history database for the weather conditions in past years. The results will help you decide how hot, cold, wet, or windy it might be!

Date:

Astronomy

Jan. 18, 2014 Rise Set
Actual Time 7:30 AM CST 5:20 PM CST
Civil Twilight 7:01 AM CST 5:49 PM CST
Nautical Twilight 6:29 AM CST 6:22 PM CST
Astronomical Twilight 5:57 AM CST 6:54 PM CST
Moon 8:01 PM CST (1/18) 8:32 AM CST (1/18)
Length of Visible Light 10h 48m
Length of Day
9h 50m
Waning Gibbous, 94% of the Moon is Illuminated
Jan 18
Waning Gibbous
Jan 23
Last Quarter
Jan 30
New
Feb 6
First Quarter
Feb 14
Full

Hourly Weather History & Observations

Time (CST) Temp. Dew Point Humidity Pressure Visibility Wind Dir Wind Speed Gust Speed Precip Events Conditions
12:15 AM - - N/A% 30.01 in 10.0 mi South 6.9 mph - N/A   Overcast
12:35 AM - - N/A% 30.00 in 10.0 mi South 6.9 mph - N/A   Overcast
12:55 AM - - N/A% 29.99 in 10.0 mi SSE 5.8 mph - N/A   Overcast
1:15 AM - - N/A% 29.97 in 10.0 mi SSE 6.9 mph - N/A   Overcast
1:35 AM - - N/A% 29.96 in 10.0 mi SSE 6.9 mph - N/A   Overcast
1:55 AM - - N/A% 29.95 in 10.0 mi South 8.1 mph - N/A   Overcast
2:15 AM - - N/A% 29.94 in 10.0 mi South 10.4 mph - N/A   Overcast
2:35 AM - - N/A% 29.92 in 10.0 mi South 9.2 mph - N/A   Overcast
2:55 AM - - N/A% 29.90 in 10.0 mi South 11.5 mph - N/A   Overcast
3:15 AM - - N/A% 29.89 in 10.0 mi South 12.7 mph - N/A   Overcast
3:35 AM - - N/A% 29.87 in 10.0 mi South 9.2 mph - N/A   Scattered Clouds
3:55 AM - - N/A% 29.85 in 10.0 mi SSE 9.2 mph - N/A   Scattered Clouds
4:15 AM - - N/A% 29.83 in 10.0 mi South 11.5 mph - N/A   Clear
4:35 AM - - N/A% 29.80 in 10.0 mi South 15.0 mph 19.6 mph N/A   Clear
4:55 AM - - N/A% 29.79 in 10.0 mi South 13.8 mph 19.6 mph N/A   Clear
5:15 AM - - N/A% 29.76 in 10.0 mi South 15.0 mph - N/A   Clear
5:35 AM - - N/A% 29.76 in 10.0 mi South 12.7 mph 18.4 mph N/A   Clear
6:15 AM - - N/A% 29.74 in 10.0 mi SSW 13.8 mph - N/A   Scattered Clouds
6:35 AM - - N/A% 29.74 in 10.0 mi SSW 15.0 mph 19.6 mph N/A   Mostly Cloudy
6:55 AM - - N/A% 29.73 in 10.0 mi SSW 13.8 mph 21.9 mph N/A   Mostly Cloudy
7:15 AM - - N/A% 29.72 in 10.0 mi SW 16.1 mph 24.2 mph N/A   Mostly Cloudy
7:35 AM - - N/A% 29.71 in 10.0 mi SW 13.8 mph 23.0 mph N/A   Mostly Cloudy
7:55 AM - - N/A% 29.71 in 10.0 mi SW 15.0 mph 21.9 mph N/A   Mostly Cloudy
8:15 AM - - N/A% 29.71 in 10.0 mi SW 16.1 mph 20.7 mph N/A   Overcast
8:35 AM - - N/A% 29.72 in 10.0 mi WSW 13.8 mph 20.7 mph N/A   Mostly Cloudy
8:55 AM - - N/A% 29.73 in 10.0 mi SW 13.8 mph - N/A   Scattered Clouds
9:15 AM - - N/A% 29.72 in 10.0 mi SW 15.0 mph 20.7 mph N/A   Clear
9:35 AM - - N/A% 29.74 in 10.0 mi WSW 15.0 mph 23.0 mph N/A   Mostly Cloudy
9:55 AM - - N/A% 29.74 in 10.0 mi WSW 12.7 mph - N/A   Overcast
10:15 AM - - N/A% 29.75 in 10.0 mi West 9.2 mph - N/A   Overcast
10:35 AM - - N/A% 29.75 in 10.0 mi WSW 12.7 mph - N/A   Scattered Clouds
10:55 AM - - N/A% 29.75 in 10.0 mi West 15.0 mph 23.0 mph N/A   Clear
11:15 AM - - N/A% 29.74 in 10.0 mi West 19.6 mph 26.5 mph N/A   Clear
11:35 AM - - N/A% 29.73 in 10.0 mi West 21.9 mph 32.2 mph N/A   Scattered Clouds
11:55 AM - - N/A% 29.73 in 10.0 mi West 17.3 mph 31.1 mph N/A   Mostly Cloudy
12:15 PM - - N/A% 29.72 in 10.0 mi WNW 16.1 mph 28.8 mph N/A   Overcast
12:35 PM - - N/A% 29.72 in 10.0 mi West 17.3 mph 31.1 mph N/A   Mostly Cloudy
12:55 PM - - N/A% 29.72 in 10.0 mi West 16.1 mph 35.7 mph N/A   Overcast
1:15 PM - - N/A% 29.73 in 10.0 mi West 21.9 mph 29.9 mph N/A   Overcast
1:35 PM - - N/A% 29.75 in 7.0 mi WNW 20.7 mph 38.0 mph N/A   Drizzle
1:55 PM - - N/A% 29.74 in 10.0 mi West 11.5 mph - N/A   Overcast
2:15 PM - - N/A% 29.75 in 10.0 mi West 19.6 mph 32.2 mph N/A   Overcast
2:35 PM - - N/A% 29.76 in 10.0 mi West 17.3 mph 33.4 mph N/A   Light Drizzle
2:55 PM - - N/A% 29.77 in 10.0 mi West 19.6 mph 27.6 mph N/A   Overcast
3:15 PM - - N/A% 29.79 in 10.0 mi WNW 13.8 mph 26.5 mph N/A   Overcast
3:35 PM - - N/A% 29.81 in 10.0 mi WNW 20.7 mph 33.4 mph N/A   Overcast
3:55 PM - - N/A% 29.83 in 10.0 mi NW 24.2 mph 38.0 mph N/A   Overcast
4:15 PM - - N/A% 29.87 in 10.0 mi NW 23.0 mph 35.7 mph N/A   Mostly Cloudy
4:35 PM - - N/A% 29.88 in 10.0 mi NW 19.6 mph 33.4 mph N/A   Scattered Clouds
4:55 PM - - N/A% 29.90 in 10.0 mi NW 21.9 mph 33.4 mph N/A   Mostly Cloudy
5:15 PM - - N/A% 29.92 in 10.0 mi NW 17.3 mph 27.6 mph N/A   Overcast
5:35 PM - - N/A% 29.94 in 10.0 mi NW 21.9 mph 32.2 mph N/A   Overcast
5:55 PM - - N/A% 29.96 in 10.0 mi NW 19.6 mph 31.1 mph N/A   Mostly Cloudy
6:15 PM - - N/A% 29.99 in 10.0 mi NW 19.6 mph 25.3 mph N/A   Mostly Cloudy
6:35 PM - - N/A% 30.00 in 10.0 mi NW 17.3 mph 25.3 mph N/A   Overcast
6:55 PM - - N/A% 30.01 in 10.0 mi NNW 17.3 mph 24.2 mph N/A   Overcast
7:15 PM - - N/A% 30.02 in 10.0 mi WNW 21.9 mph 28.8 mph N/A   Overcast
7:35 PM - - N/A% 30.03 in 10.0 mi NNW 21.9 mph 28.8 mph N/A   Overcast
7:55 PM - - N/A% 30.05 in 10.0 mi NW 21.9 mph 27.6 mph N/A   Overcast
8:15 PM - - N/A% 30.05 in 10.0 mi NW 21.9 mph 28.8 mph N/A   Mostly Cloudy
8:35 PM - - N/A% 30.08 in 10.0 mi NW 17.3 mph 24.2 mph N/A   Mostly Cloudy
8:55 PM - - N/A% 30.08 in 10.0 mi NW 11.5 mph 18.4 mph N/A   Overcast
9:15 PM - - N/A% 30.08 in 10.0 mi NW 9.2 mph - N/A   Overcast
9:35 PM - - N/A% 30.08 in 10.0 mi NW 10.4 mph - N/A   Scattered Clouds
9:55 PM - - N/A% 30.09 in 10.0 mi NW 8.1 mph - N/A   Scattered Clouds
10:15 PM - - N/A% 30.10 in 10.0 mi NW 9.2 mph 16.1 mph N/A   Clear
10:35 PM - - N/A% 30.11 in 10.0 mi NW 6.9 mph - N/A   Clear
10:55 PM - - N/A% 30.11 in 10.0 mi NW 6.9 mph - N/A   Clear
11:15 PM - - N/A% 30.12 in 10.0 mi WNW 5.8 mph - N/A   Clear
11:35 PM - - N/A% 30.11 in 10.0 mi NW 4.6 mph - N/A   Clear
11:55 PM - - N/A% 30.11 in 10.0 mi WNW 5.8 mph - N/A   Clear